Погода в Байбеке

Россия / Астраханская область     46°39′08″N   48°27′28″E
темп.,
°C
ветер,
м/с
пор.,
м/с
влажн.,
%
обл.,
%
осадки,
мм/ч
давл.,
гПа
погр.,
м
15 апреля, чт
чт1501:00+17всв5924100 0.0 1013167
04:00+15св4545100 0.0 1012120
07:00+15в5104296 0.3 1012355
10:00+19в9113459 0.3 10111008
13:00+19в793642 0.0 10101243
16:00+19в673811 0.0 10101647
19:00+17ссв56465 0.0 10101031
22:00+15с225661 0.0 101136
16 апреля, пт
пт1601:00+14з23563 0.0 101126
04:00+13зсз46574 0.0 1012110
07:00+12зсз610685 0.0 1014270
10:00+18сз79375 0.0 1015719
13:00+23сз810233 0.0 10151612
16:00+24ссз79221 0.0 10152590
19:00+22ссз58275 0.0 1016436
22:00+18сз33330 0.0 101730
17 апреля, сб
сб1701:00+15ссв22590 0.0 101823
04:00+14сз226099 0.0 101811
07:00+15св1159100 0.0 101811
10:00+19юз224294 0.0 1019500
13:00+23зюз2230100 0.0 10191923
16:00+23зюз4325100 0.0 10182455
19:00+21сз6732100 0.0 1019497
22:00+16ссз7957100 0.0 1021584
18 апреля, вс
вс1801:00+14ссз6867100 0.1 1021464
04:00+14с3370100 0.2 1021527
07:00+13ссз2276100 0.0 1020237
10:00+13зсз2277100 0.0 1020378
13:00+16зсз125976 0.0 1019730
16:00+19ссз124793 0.0 10171748
19:00+18в2144100 0.0 1016822
22:00+17ююз4555100 0.1 1017307
19 апреля, пн
пн1901:00+15юз4658100 0.1 1016286
04:00+16зсз3544100 0.1 1016164
07:00+15сз4653100 0.0 1016297
10:00+16с4446100 0.0 1016479
13:00+15с3350100 0.0 1016493
16:00+17сз2244100 0.0 10151008
19:00+16сз3445100 0.0 1015597
22:00+15ссз2355100 0.0 1014186